Miscellaneous Local Product
Issued by NWS Hastings, NE

Home | Current Version | Previous Version | Graphics & Text | Print | Product List | Glossary On
Versions: 1 2 3 4 5 6 7 8 9 10 11 12 13 14 15 16 17 18 19 20 21 22 23 24 25 26 27 28 29 30 31 32 33 34 35 36 37 38 39 40 41 42 43 44 45 46 47 48 49 50
000
AXUS43 KGID 242002
MISGRI

GID CWA HOURLY WEATHER ROUNDUP
NATIONAL WEATHER SERVICE HASTINGS NE
300 PM CDT SUN MAY 24 2015

NOTE: "FAIR" INDICATES FEW OR NO CLOUDS BELOW 12,000 FEET WITH NO
SIGNIFICANT WEATHER AND/OR OBSTRUCTIONS TO VISIBILITY.

...SOUTH CENTRAL NEBRASKA...

CITY           SKY/WX    TMP DP  RH WIND       PRES   REMARKS
GRAND ISLAND   CLOUDY    65  57  75 W8        29.83F
HASTINGS       CLOUDY    64  58  80 SW5       29.84F
KEARNEY        CLOUDY    63  57  82 SE7       29.84F
ORD            CLOUDY    64  57  78 CALM      29.82F
YORK           CLOUDY    66  59  77 S3        29.83F
AURORA         CLOUDY    67  60  79 W7        29.83F
LEXINGTON      LGT RAIN  61  58  89 CALM      29.85F
HOLDREGE       CLOUDY    63  57  81 SW6       29.85F
HEBRON         CLOUDY    67  58  72 SW6       29.83F

...NEBRASKA PANHANDLE...

CITY           SKY/WX    TMP DP  RH WIND       PRES   REMARKS
CHADRON        MOSUNNY   65  54  67 N8        29.83F
ALLIANCE       SUNNY     67  51  56 VRB7      29.82F
SCOTTSBLUFF    SUNNY     66  49  54 MISG      29.82F
SIDNEY         MOSUNNY   63  49  60 E7        29.85F

...WESTERN AND NORTH CENTRAL NEBRASKA...

CITY           SKY/WX    TMP DP  RH WIND       PRES   REMARKS
VALENTINE      LGT RAIN  61  58  90 E7        29.85F FOG
AINSWORTH      CLOUDY    62  59  90 NE5       29.85F
ONEILL         CLOUDY    61  60  97 E3        29.85F
BROKEN BOW     CLOUDY    65  57  75 SE6       29.84F
IMPERIAL       MOSUNNY   68  51  54 VRB5      29.81F
NORTH PLATTE   MOSUNNY   68  55  63 E6        29.83F
MCCOOK         CLOUDY    68  56  65 E9        29.81F

...EASTERN NEBRASKA...

CITY           SKY/WX    TMP DP  RH WIND       PRES   REMARKS
NORFOLK        CLOUDY    65  59  81 SW5       29.82F
SO SIOUX CITY  CLOUDY    65  59  81 CALM      29.81F
TEKAMAH        CLOUDY    68  62  81 S6        29.80F
COLUMBUS       CLOUDY    64  55  72 W6        29.86S
ALBION         CLOUDY    64  57  78 CALM      29.83F
OMAHA EPPLEY   CLOUDY    68  61  78 SW3       29.81S
OFFUTT AFB     CLOUDY    68  62  81 S7        29.81S
MILLARD        CLOUDY    68  61  78 SW3       29.82S
LINCOLN        CLOUDY    70  60  70 VRB5      29.82F
NEBRASKA CITY  CLOUDY    69  64  84 SW7       29.83F
BEATRICE       CLOUDY    67  61  81 SW6       29.83F
FALLS CITY     CLOUDY    69  63  81 S9        29.83F

...NORTHERN KANSAS...

CITY           SKY/WX    TMP DP  RH WIND       PRES   REMARKS
GOODLAND       MOSUNNY   67  54  63 SE8       29.82F
HILL CITY      PTSUNNY   68  58  70 S7        29.83F
NORTON         PTCLDY    68  55  64 NE5       29.82F
PHILLIPSBURG   CLOUDY    66  59  77 CALM      29.83F
SMITH CENTER   CLOUDY    64  59  82 E3        29.84F
HAYS           CLOUDY    68  55  64 SE9       29.83F
RUSSELL        CLOUDY    69  58  67 S10       29.83S
CONCORDIA      CLOUDY    67  60  78 S8        29.84F
SALINA         CLOUDY    68  61  78 S9        29.85S
TOPEKA         CLOUDY    70  61  73 S8        29.86F



USA.gov is the U.S. government's official web portal to all federal, state and local government web resources and services.